When you browse on this site, cookies collect data to enhance your experience and personalize the content and advertising you see.
Visit our Privacy Policy to learn more. By continuing to use the site, you agree to this use of cookies and data.
  • In Deutschland
  • Länderverzeichnis
  • Für 7 Tage
  • Wassertemperatur
  • Satellitenkarten
  • Wetterkarte
  • Widgets
  • user-avatar
    Anmelden

    Stündliche Wetter Bagdarin

    Heute, 18 Dezember, Dienstag

    Zeit Temperatur Niederschläge Wind Luftdruck Luftfeuchtigkeit
    00:00 -25°C° 0 mm 2 m/S 671 mmHg 88%
    01:00 -24°C° 0 mm 2 m/S 671 mmHg 89%
    02:00 -24°C° 0 mm 3 m/S 670 mmHg 88%
    03:00 -24°C° 0 mm 3 m/S 670 mmHg 87%
    04:00 -24°C° 0 mm 3 m/S 669 mmHg 87%
    05:00 -24°C° 0 mm 3 m/S 669 mmHg 87%
    06:00 -23°C° 0 mm 3 m/S 669 mmHg 86%
    07:00 -23°C° 0 mm 3 m/S 669 mmHg 86%
    08:00 -20°C° 0 mm 5 m/S 668 mmHg 79%
    09:00 -19°C° 0 mm 5 m/S 668 mmHg 79%
    10:00 -18°C° 0 mm 4 m/S 668 mmHg 78%
    11:00 -17°C° 0 mm 4 m/S 668 mmHg 77%
    12:00 -16°C° 0 mm 4 m/S 668 mmHg 75%
    13:00 -15°C° 0 mm 4 m/S 668 mmHg 74%
    14:00 -14°C° 0 mm 3 m/S 668 mmHg 74%
    15:00 -15°C° 0 mm 3 m/S 668 mmHg 76%
    16:00 -16°C° 0 mm 3 m/S 669 mmHg 78%
    17:00 -17°C° 0 mm 3 m/S 669 mmHg 81%
    18:00 -17°C° 0 mm 3 m/S 670 mmHg 81%
    19:00 -18°C° 0 mm 3 m/S 670 mmHg 82%
    20:00 -18°C° 0 mm 3 m/S 670 mmHg 83%
    21:00 -18°C° 0 mm 3 m/S 671 mmHg 84%
    22:00 -19°C° 0 mm 3 m/S 671 mmHg 84%
    23:00 -18°C° 0 mm 2 m/S 671 mmHg 85%

    Morgen, 19 Dezember, Mittwoch

    Zeit Temperatur Niederschläge Wind Luftdruck Luftfeuchtigkeit
    00:00 -18°C° 0 mm 2 m/S 672 mmHg 85%
    01:00 -18°C° 0 mm 2 m/S 672 mmHg 85%
    02:00 -18°C° 0 mm 2 m/S 672 mmHg 85%
    03:00 -17°C° 0 mm 2 m/S 672 mmHg 85%
    04:00 -17°C° 0 mm 2 m/S 672 mmHg 85%
    05:00 -16°C° 0 mm 2 m/S 673 mmHg 85%
    06:00 -17°C° 0 mm 2 m/S 673 mmHg 85%
    07:00 -17°C° 0 mm 2 m/S 673 mmHg 85%
    08:00 -17°C° 0 mm 2 m/S 673 mmHg 85%
    09:00 -16°C° 0 mm 2 m/S 673 mmHg 83%
    10:00 -15°C° 0 mm 2 m/S 673 mmHg 82%
    11:00 -15°C° 0 mm 2 m/S 673 mmHg 80%
    12:00 -14°C° 0 mm 2 m/S 673 mmHg 79%
    13:00 -13°C° 0 mm 2 m/S 673 mmHg 78%
    14:00 -12°C° 0 mm 2 m/S 673 mmHg 77%
    15:00 -14°C° 0 mm 2 m/S 673 mmHg 80%
    16:00 -15°C° 0 mm 2 m/S 673 mmHg 84%
    17:00 -17°C° 0 mm 2 m/S 673 mmHg 87%
    18:00 -17°C° 0 mm 2 m/S 673 mmHg 87%
    19:00 -18°C° 0 mm 2 m/S 673 mmHg 87%
    20:00 -16°C° 0 mm 1 m/S 673 mmHg 88%
    21:00 -16°C° 0 mm 1 m/S 674 mmHg 88%
    22:00 -16°C° 0 mm 1 m/S 674 mmHg 88%
    23:00 -16°C° 0 mm 1 m/S 674 mmHg 89%

    übermorgen, 20 Dezember, Donnerstag

    Zeit Temperatur Niederschläge Wind Luftdruck Luftfeuchtigkeit
    00:00 -16°C° 0 mm 1 m/S 674 mmHg 89%
    01:00 -17°C° 0 mm 1 m/S 674 mmHg 90%
    02:00 -17°C° 0 mm 1 m/S 674 mmHg 90%
    03:00 -17°C° 0 mm 1 m/S 674 mmHg 90%
    04:00 -17°C° 0 mm 1 m/S 674 mmHg 91%
    05:00 -18°C° 0 mm 1 m/S 673 mmHg 91%
    06:00 -18°C° 0 mm 1 m/S 674 mmHg 91%
    07:00 -18°C° 0 mm 1 m/S 674 mmHg 91%
    08:00 -18°C° 0 mm 1 m/S 674 mmHg 91%
    09:00 -17°C° 0 mm 1 m/S 674 mmHg 90%
    10:00 -16°C° 0 mm 1 m/S 674 mmHg 88%
    11:00 -15°C° 0 mm 1 m/S 675 mmHg 87%
    12:00 -14°C° 0 mm 1 m/S 674 mmHg 86%
    13:00 -13°C° 0 mm 1 m/S 674 mmHg 86%
    14:00 -13°C° 0 mm 1 m/S 674 mmHg 86%
    15:00 -14°C° 0 mm 1 m/S 674 mmHg 88%
    16:00 -15°C° 0 mm 1 m/S 674 mmHg 90%
    17:00 -17°C° 0 mm 1 m/S 674 mmHg 92%
    18:00 -17°C° 0 mm 1 m/S 674 mmHg 92%
    19:00 -17°C° 0 mm 1 m/S 674 mmHg 92%
    20:00 -17°C° 0 mm 1 m/S 674 mmHg 92%
    21:00 -17°C° 0 mm 1 m/S 674 mmHg 92%
    22:00 -17°C° 0 mm 1 m/S 674 mmHg 92%
    23:00 -17°C° 0 mm 1 m/S 674 mmHg 92%

    21 Dezember, Freitag

    Zeit Temperatur Niederschläge Wind Luftdruck Luftfeuchtigkeit
    00:00 -18°C° 0 mm 1 m/S 674 mmHg 92%
    01:00 -18°C° 0 mm 1 m/S 675 mmHg 93%
    02:00 -19°C° 0 mm 1 m/S 675 mmHg 93%
    03:00 -18°C° 0 mm 1 m/S 675 mmHg 92%
    04:00 -18°C° 0 mm 1 m/S 675 mmHg 92%
    05:00 -18°C° 0 mm 1 m/S 675 mmHg 92%
    06:00 -18°C° 0 mm 1 m/S 675 mmHg 91%
    07:00 -18°C° 0 mm 1 m/S 675 mmHg 91%
    08:00 -18°C° 0 mm 1 m/S 676 mmHg 91%
    09:00 -19°C° 0 mm 2 m/S 676 mmHg 89%
    10:00 -18°C° 0 mm 2 m/S 677 mmHg 87%
    11:00 -17°C° 0 mm 2 m/S 677 mmHg 85%
    12:00 -18°C° 0 mm 3 m/S 677 mmHg 80%
    13:00 -19°C° 0 mm 4 m/S 677 mmHg 75%
    14:00 -20°C° 0 mm 5 m/S 677 mmHg 70%
    15:00 -22°C° 0 mm 4 m/S 677 mmHg 73%
    16:00 -24°C° 0 mm 4 m/S 678 mmHg 76%
    17:00 -25°C° 0 mm 3 m/S 678 mmHg 79%
    18:00 -26°C° 0 mm 3 m/S 678 mmHg 80%
    19:00 -29°C° 0 mm 4 m/S 679 mmHg 80%
    20:00 -30°C° 0 mm 4 m/S 679 mmHg 80%
    21:00 -30°C° 0 mm 4 m/S 679 mmHg 80%
    22:00 -30°C° 0 mm 3 m/S 680 mmHg 80%
    23:00 -31°C° 0 mm 3 m/S 680 mmHg 81%

    22 Dezember, Samstag

    Zeit Temperatur Niederschläge Wind Luftdruck Luftfeuchtigkeit
    00:00 -32°C° 0 mm 3 m/S 680 mmHg 81%
    01:00 -32°C° 0 mm 3 m/S 680 mmHg 81%
    02:00 -33°C° 0 mm 3 m/S 680 mmHg 81%
    03:00 -31°C° 0 mm 2 m/S 680 mmHg 81%
    04:00 -32°C° 0 mm 2 m/S 680 mmHg 82%
    05:00 -32°C° 0 mm 2 m/S 680 mmHg 83%
    06:00 -32°C° 0 mm 2 m/S 680 mmHg 83%
    07:00 -32°C° 0 mm 2 m/S 680 mmHg 83%
    08:00 -31°C° 0 mm 1 m/S 680 mmHg 83%
    09:00 -29°C° 0 mm 1 m/S 680 mmHg 82%
    10:00 -28°C° 0 mm 1 m/S 680 mmHg 81%
    11:00 -27°C° 0 mm 1 m/S 680 mmHg 80%
    12:00 -24°C° 0 mm 1 m/S 680 mmHg 81%
    13:00 -23°C° 0 mm 1 m/S 680 mmHg 82%
    14:00 -25°C° 0 mm 2 m/S 679 mmHg 83%
    15:00 -23°C° 0 mm 1 m/S 679 mmHg 86%
    16:00 -24°C° 0 mm 1 m/S 679 mmHg 89%
    17:00 -24°C° 0 mm 1 m/S 679 mmHg 93%
    18:00 -24°C° 0 mm 1 m/S 679 mmHg 93%
    19:00 -25°C° 0 mm 1 m/S 679 mmHg 93%
    20:00 -25°C° 0 mm 1 m/S 679 mmHg 93%
    21:00 -25°C° 0 mm 1 m/S 678 mmHg 93%
    22:00 -25°C° 0 mm 1 m/S 678 mmHg 93%
    23:00 -25°C° 0 mm 1 m/S 678 mmHg 93%

    23 Dezember, Sonntag

    Zeit Temperatur Niederschläge Wind Luftdruck Luftfeuchtigkeit
    00:00 -25°C° 0 mm 1 m/S 677 mmHg 93%
    01:00 -25°C° 0 mm 1 m/S 677 mmHg 94%
    02:00 -25°C° 0 mm 1 m/S 677 mmHg 94%
    03:00 -25°C° 0 mm 1 m/S 676 mmHg 94%
    04:00 -25°C° 0 mm 1 m/S 676 mmHg 94%
    05:00 -25°C° 0 mm 1 m/S 675 mmHg 95%
    06:00 -24°C° 0 mm 1 m/S 675 mmHg 95%
    07:00 -24°C° 0 mm 1 m/S 674 mmHg 96%
    08:00 -24°C° 0 mm 1 m/S 674 mmHg 96%
    09:00 -22°C° 0 mm 1 m/S 674 mmHg 94%
    10:00 -21°C° 0 mm 1 m/S 674 mmHg 93%
    11:00 -20°C° 0 mm 1 m/S 673 mmHg 91%
    12:00 -21°C° 0 mm 2 m/S 673 mmHg 88%
    13:00 -20°C° 0 mm 2 m/S 673 mmHg 85%
    14:00 -21°C° 0 mm 3 m/S 672 mmHg 82%
    15:00 -22°C° 0 mm 3 m/S 672 mmHg 82%
    16:00 -23°C° 0 mm 3 m/S 672 mmHg 82%
    17:00 -25°C° 0 mm 3 m/S 672 mmHg 81%
    18:00 -26°C° 0 mm 3 m/S 672 mmHg 81%
    19:00 -27°C° 0 mm 3 m/S 672 mmHg 80%
    20:00 -30°C° 0 mm 3 m/S 672 mmHg 80%
    21:00 -28°C° 0 mm 2 m/S 672 mmHg 80%
    22:00 -29°C° 0 mm 2 m/S 673 mmHg 81%
    23:00 -30°C° 0 mm 2 m/S 673 mmHg 81%
    Mehr zeigen